Regional Weather Roundup
Issued by NWS

Home | Current Version | Previous Version | Graphics & Text | Print | Product List | Glossary On
Versions: 1 2 3 4 5 6 7 8 9 10 11 12 13 14 15 16 17 18 19 20 21 22 23 24 25 26 27 28 29 30 31 32 33 34 35 36 37 38 39 40 41 42 43 44 45 46 47 48 49 50
000
ASUS43 KLOT 121703
RWRIL

ILLINOIS REGIONAL WEATHER ROUNDUP
NATIONAL WEATHER SERVICE CHICAGO/ROMEOVILLE IL
1100 AM CST FRI FEB 12 2016

NOTE: "FAIR" INDICATES FEW OR NO CLOUDS BELOW 12,000 FEET WITH NO
SIGNIFICANT WEATHER AND/OR OBSTRUCTIONS TO VISIBILITY.

* THESE STATIONS ARE NOT UNDER NWS QUALITY CONTROL. THEY ALSO MAY NOT
  REPORT WEATHER SUCH AS PRECIPITATION OR FOG.

ILZ001-002-007-009-015-016-024-121800-
NORTHWEST ILLINOIS

CITY           SKY/WX    TMP DP  RH WIND       PRES   REMARKS
MOLINE         PTSUNNY   23  10  57 NW18      30.28R WCI   9
STERLING*      PTSUNNY   21   9  58 W17G23    30.21R WCI   7
$$

ILZ003-004-008-010-011-017-018-121800-
NORTH CENTRAL ILLINOIS

CITY           SKY/WX    TMP DP  RH WIND       PRES   REMARKS
ROCKFORD       PTSUNNY   21   7  54 NW20G30   30.22R WCI   6
FREEPORT*      PTSUNNY   19   8  63 NW16G26   30.23R WCI   4
DE KALB*       PTSUNNY   21  11  66 NW21G26   30.18R WCI   5
$$

ILZ005-006-012>014-019>023-121800-
NORTHEAST ILLINOIS

CITY           SKY/WX    TMP DP  RH WIND       PRES   REMARKS
CHICAGO-OHARE  PTSUNNY   20   8  60 NW20      30.15S WCI   4
CHICAGO-MIDWAY FLURRIES  23  11  60 W17       30.16R WCI   9
AURORA         PTSUNNY   21  12  68 NW18      30.18R WCI   6
LANSING*       LGT SNOW  22  14  71 W13G20    30.16R WCI  10
WAUKEGAN       PTSUNNY   19   6  57 NW10G26   30.14R WCI   7
DUPAGE AIRPORT CLOUDY    20   8  60 NW18      30.16S WCI   5
WHEELING       CLOUDY    20   8  60 NW21G29   30.17R WCI   4
NORTHERLY ISL    N/A     22  11  62 NW8         N/A  WCI  13
$$

LMZ740>746-121800-
SOUTHERN LAKE MICHIGAN

STATION/POSITION SKY/WX   TEMP    WIND        PRES    VSBY  WAVE
                          AIR SEA DIR/SP/G                  HT/PER
                          (F)     (DEG/KT/KT) (MB)    (MI)  (FT/S)
HARRISON CRIB              21     300/ 17/ 19   N/A
BURNHAM HARBOR             22     260/ 11/ 16   N/A
CALUMET HARBOR             20     270/ 11/ 16 1020.1R
BURNS HARBOR               21     290/ 18/ 22 1020.7R
MICHIGAN CITY              22     250/ 21/ 24   N/A
$$

ILZ025>027-034>036-040-047-049-050-058-095>099-121800-
WEST-CENTRAL ILLINOIS

CITY           SKY/WX    TMP DP  RH WIND       PRES   REMARKS
QUINCY         CLOUDY    24  18  77 NW23      30.32R WCI   9
MACOMB*        FLURRIES  25  20  81 NW22G28   30.31R WCI  10
$$

ILZ028>032-037-038-041>044-048-051>054-059>061-121800-
CENTRAL ILLINOIS

CITY           SKY/WX    TMP DP  RH WIND       PRES   REMARKS
BLOOMINGTON    LGT SNOW  24  20  85 NW14      30.21S FOG     WCI  12
DECATUR        CLOUDY    25  18  74 W15       30.24R WCI  13
PEORIA         LGT SNOW  24  18  77 NW14      30.25S WCI  12
LINCOLN*       CLOUDY    26  21  84 W6        30.25R WCI  19
SPRINGFIELD    CLOUDY    26  20  77 NW14      30.27R WCI  14
TAYLORVILLE    NOT AVBL
$$

ILZ033-039-045-046-055>057-062-063-121800-
EAST-CENTRAL ILLINOIS

CITY           SKY/WX    TMP DP  RH WIND       PRES   REMARKS
CHAMPAIGN      CLOUDY    25  19  78 W15       30.21S WCI  13
MATTOON        CLOUDY    25  19  78 NW18      30.22R WCI  11
$$

ILZ079-100>102-121800-
SOUTHWEST ILLINOIS

CITY           SKY/WX    TMP DP  RH WIND       PRES   REMARKS
CAHOKIA*       CLOUDY    32  23  69 NW13      30.30R WCI  22
SPARTA*        CLOUDY    30  25  80 NW7       30.29S WCI  23
$$

ILZ064>066-069>071-074>076-080>082-084>086-088>090-092>094-121800-
SOUTH-CENTRAL ILLINOIS

CITY           SKY/WX    TMP DP  RH WIND       PRES   REMARKS
CARBONDALE     CLOUDY    30  24  78 NW6       30.28R WCI  24
MARION         CLOUDY    30  27  86 NW7       30.28R WCI  23
MT. VERNON     CLOUDY    28  21  74 CALM      30.27S
CENTRALIA*     CLOUDY    30  25  82 W10       30.26S WCI  21
SALEM*         CLOUDY    29  24  79 W12       30.26S WCI  19
$$

ILZ067-068-072-073-078-083-087-091-121800-
SOUTHEAST ILLINOIS

CITY           SKY/WX    TMP DP  RH WIND       PRES   REMARKS
LAWRENCEVILLE  CLOUDY    27  21  78 W12       30.24S WCI  17
HARRISBURG*    CLOUDY    29  24  81 CALM      30.28S
$$

ABBREVIATIONS USED IN REMARKS
   TC - TEMPERATURE IN CELSIUS
  WCI - WIND CHILL INDEX
   HX - HEAT INDEX
  VSB - VISIBILITY
$$




USA.gov is the U.S. government's official web portal to all federal, state and local government web resources and services.